Simultaneous Nadir Overpasses (SNOs) Predictions

Prediction of SNOs between AQUA and GOES-15 Satellite Orbit:

Table of predicted SNOs for the next 14.0 days since TLE Epoch: 7/13/2024
Index Date Time (AQUA) AQUA Lat,Lon GOES-15 Lat,Lon Distance(km) Time Diff (sec)
1 07/13/2024 09:57:37 0.86, 63.58 0.32, 61.13 279.34 80
2 07/13/2024 22:17:40 0.20, 58.73 -0.33, 61.18 279.06 80
3 07/15/2024 22:00:55 -0.71, 62.82 -0.33, 61.18 186.57 80
4 07/16/2024 10:21:08 -0.35, 57.93 0.35, 61.14 365.32 80
5 07/18/2024 10:04:22 0.56, 62.02 0.35, 61.15 99.80 80
6 07/18/2024 22:24:26 0.49, 57.17 -0.37, 61.20 458.29 80
7 07/20/2024 22:07:39 -0.41, 61.27 -0.37, 61.22 6.82 80
8 07/22/2024 21:50:50 -1.23, 65.39 -0.37, 61.25 470.66 80
9 07/23/2024 10:11:03 0.22, 60.49 0.39, 61.21 81.64 80
10 07/25/2024 09:54:14 1.11, 64.61 0.38, 61.24 383.35 80
11 07/25/2024 22:14:18 -0.09, 59.75 -0.40, 61.28 174.30 80
